Location: *
(40.7873°S, 98.7174°E)
Time: 06:30:15
(UTC+00:00)

Meteor 1-26 Rocket - Visible Passes

Search period start: 06 October 2022 00:00
Search period end: 16 October 2022 00:00
Orbit: 809 x 925 km, 81.3° (Epoch: 05 October)

Date Brightness Start Highest point End Pass type
(mag) Time Alt. Az. Time Alt. Az. Time Alt. Az.
06 Oct 6.5 17:53:05 10° S 17:55:08 22° S 17:55:08 22° S visible
07 Oct 6.4 17:46:06 10° S 17:48:12 22° S 17:48:12 22° S visible
08 Oct 6.4 17:39:08 10° S 17:41:17 23° S 17:41:17 23° S visible
09 Oct 6.4 17:32:10 10° S 17:34:22 23° S 17:34:22 23° S visible
10 Oct 6.4 17:25:12 10° S 17:27:28 24° S 17:27:28 24° S visible
11 Oct 6.3 17:18:14 10° S 17:20:34 24° S 17:20:34 24° S visible
12 Oct 6.3 17:11:16 10° S 17:13:41 25° S 17:13:41 25° S visible
13 Oct 6.2 17:04:18 10° S 17:06:48 26° S 17:06:48 26° S visible
14 Oct 6.2 16:57:20 10° S 16:59:56 27° S 16:59:56 27° S visible
15 Oct 6.1 16:50:23 10° S 16:53:04 28° S 16:53:04 28° S visible
